SHENZHOU-11 MODULE (41868 NORAD) Tracking and Keplerian Element Data

This shows tracking and keplerian element data for the satellite.

Feedback or suggestion? Click here.




ElementValue
Catalog41868
NameSHENZHOU-11 MODULE
Epoch Orbit12957
Epoch Day52.43655993
Epoch Year2019
RAAN236.0748
Inclination42.7922
Eccentricity0.0005973
Argument of Perigee298.526
Mean Anonmoly143.0077
Mean Motion15.77150624
Decay Rate0.00011149
L11 41868U 16061G 19052.43655993 .00011149 00000-0 68859-4 0 9998
L22 41868 42.7922 236.0748 0005973 298.5260 143.0077 15.77150624129575

Live tracking and technical data element details for SHENZHOU-11 MODULE (NORAD 41868). SHENZHOU-11 MODULE can be tracked NOW for your location showing map with azimuth and elevation plus other details from your city location.

Track the satellite on the map from your city or location and see movement details for azimuth, elevation, latitude, longitude, range, height, and movement on the map or in text.







IsCatalogInMostPopularTable: catalog: 41868, numindb: 187
Update: records affected: 1



GetName: 41868 SHENZHOU-11 MODULE

Hit Count: updated at: Fri, 22 Feb 2019 22:40:25 GMT